San Jose, Costa Rica

7:56 AM CST on July 25, 2017 (GMT -0600)
Juan Santamaria International

Weather History for MROC - September, 2013

Change the Weather History Date:

Sunday, September 15, 2013

  Actual Average Record
Temperature  
Mean Temperature 72 °F -  
Max Temperature 80 °F 78 °F 86 °F (1997)
Min Temperature 64 °F 64 °F 62 °F (1999)
Cooling Degree Days 7    
Growing Degree Days 22 (Base 50)    
Moisture  
Dew Point 67 °F    
Average Humidity 84    
Maximum Humidity 100    
Minimum Humidity 46    
Precipitation  
Precipitation 0.02 in 0.45 in - ()
Sea Level Pressure  
Sea Level Pressure 29.93 in    
Wind  
Wind Speed 5 mph ()    
Max Wind Speed 12 mph    
Max Gust Speed -    
Visibility 6.4 miles    
Events Fog , Rain , Thunderstorm    
Averages and records for this station are not official NWS values.
T = Trace of Precipitation, MM = Missing Value Source: Averaged Metar Reports

Daily Weather History Graph

Daily Weather History Graph

Search for Another Location

Airport or City:

Trip Planner

Search our weather history database for the weather conditions in past years. The results will help you decide how hot, cold, wet, or windy it might be!

Date:

Astronomy

Sep. 15, 2013 Rise Set
Actual Time 5:26 AM CST 5:37 PM CST
Civil Twilight 5:05 AM CST 5:58 PM CST
Nautical Twilight 4:41 AM CST 6:22 PM CST
Astronomical Twilight 4:16 AM CST 6:47 PM CST
Moon 2:32 PM CST (9/15) 1:40 AM CST (9/15)
Length of Visible Light 12h 52m
Length of Day
12h 10m
Waxing Gibbous, 82% of the Moon is Illuminated
Sep 15
Waxing Gibbous
Sep 19
Full
Sep 26
Last Quarter
Oct 4
New
Oct 11
First Quarter

Hourly Weather History & Observations

Time (CST) Temp. Heat Index Dew Point Humidity Pressure Visibility Wind Dir Wind Speed Gust Speed Precip Events Conditions
12:00 AM 67 °F - 66 °F 94% 29.81 in 12 mi North 3.5 mph - -   Overcast
12:00 AM 66.2 °F - 66.2 °F 100% 29.97 in - North 3.5 mph - N/A   Clear
1:00 AM 66.2 °F - 66.2 °F 100% 29.95 in - East 3.5 mph - N/A   Clear
2:00 AM 66.2 °F - 64.4 °F 94% 29.92 in - East 4.6 mph - N/A   Clear
3:00 AM 67 °F - 64 °F 86% 29.80 in 12 mi ENE 4.6 mph - -   Clear
3:00 AM 66.2 °F - 64.4 °F 94% 29.91 in - ENE 4.6 mph - N/A   Clear
4:00 AM 66.2 °F - 62.6 °F 88% 29.94 in - NNE 3.5 mph - N/A   Clear
5:00 AM 64.4 °F - 64.4 °F 100% 29.95 in - ESE 2.3 mph - N/A   Clear
6:00 AM 65 °F - 63 °F 90% 29.82 in 12 mi ENE 3.5 mph - -   Clear
6:00 AM 66.2 °F - 62.6 °F 88% 29.95 in - ENE 3.5 mph - N/A   Clear
7:00 AM 69.8 °F - 62.6 °F 78% 29.96 in - NNE 8.1 mph - N/A   Clear
8:00 AM 77.0 °F - 64.4 °F 65% 29.99 in - ESE 5.8 mph - N/A   Clear
9:00 AM 80 °F - 63 °F 46% 29.82 in 12 mi ESE 8.1 mph - -   Clear
9:00 AM 80.6 °F 81.8 °F 62.6 °F 54% 30.00 in - ESE 8.1 mph - N/A   Clear
10:00 AM 77.0 °F - 68.0 °F 74% 30.02 in 6.2 mi WSW 11.5 mph - N/A   Scattered Clouds
11:00 AM 78.8 °F - 68.0 °F 69% 30.01 in 6.2 mi SW 9.2 mph - N/A   Scattered Clouds
12:00 PM 80 °F - 67 °F 55% 29.80 in 12 mi WSW 8.1 mph - -   Mostly Cloudy
12:00 PM 80.6 °F 83.2 °F 68.0 °F 65% 29.97 in 6.2 mi WSW 8.1 mph - N/A   Scattered Clouds
1:00 PM 80.6 °F 83.2 °F 68.0 °F 65% 29.94 in 6.2 mi WSW 8.1 mph - N/A   Mostly Cloudy
3:00 PM 80 °F - 69 °F 61% 29.74 in 9 mi WSW 8.1 mph - -   Mostly Cloudy
3:00 PM 78.8 °F - 69.8 °F 74% 29.90 in 6.2 mi WSW 8.1 mph - N/A   Mostly Cloudy
4:00 PM 71.6 °F - 68.0 °F 88% 29.90 in 3.1 mi SW 9.2 mph - N/A Rain , Thunderstorm Light Thunderstorms and Rain
5:00 PM 71.6 °F - 69.8 °F 94% 29.95 in 5.0 mi NW 5.8 mph - N/A Rain Light Rain
6:00 PM 71.6 °F - 69.8 °F 94% 29.96 in 5.0 mi NW 2.3 mph - N/A Rain Light Rain
7:00 PM 71.6 °F - 69.8 °F 94% - 3.1 mi Calm Calm - N/A Rain Light Rain
8:00 PM 71.6 °F - 69.8 °F 94% - 3.1 mi Calm Calm - N/A Rain Light Rain
9:00 PM 70 °F - 69 °F 95% 29.83 in 5 mi WSW 5.8 mph - - Fog Light Fog
9:00 PM 69.8 °F - 69.8 °F 100% 30.00 in 5.0 mi WSW 5.8 mph - N/A Fog Fog
9:10 PM 69.8 °F - 69.8 °F 100% 30.01 in 5.0 mi WSW 8.1 mph - N/A Fog Mostly Cloudy
10:00 PM 69.8 °F - 69.8 °F 100% 30.02 in 0.3 mi WNW 6.9 mph - N/A Fog Fog
10:10 PM - - - N/A% 30.03 in 0.7 mi NW 5.8 mph - N/A   Mostly Cloudy
11:00 PM 69.8 °F - 68.0 °F 94% 30.02 in 6.2 mi NW 2.3 mph - N/A   Mostly Cloudy